DLH51A EDDF-LOWS

Flight info

Callsign DLH51A
Flight time N/A
Altitude 31000
Route CINDY8S/18 CINDY Z74 HAREM DCT ASLEP DCT TAKUT DCT DINKU L603 OLETU T702 BADIT BADIT2R
Aircraft A319/M-SDE3FGHIRWY/LB1

Departure

Time 2026-05-01 15:32
Airport Frankfurt Main Airport (EDDF)

Arrival

Time N/A
Airport Salzburg Airport (LOWS)
Time Latitude Longitude Altitude Speed Heading
2026-05-01 15:00 50.04878 8.58971 365 ft 0 kts 340°
2026-05-01 15:03 50.04877 8.59047 368 ft 0 kts 339°
2026-05-01 15:20 50.04875 8.59049 365 ft 2 kts 339°
2026-05-01 15:20 50.04850 8.59063 368 ft 4 kts 339°
2026-05-01 15:20 50.04825 8.59078 370 ft 4 kts 339°
2026-05-01 15:21 50.04800 8.59093 372 ft 4 kts 339°
2026-05-01 15:21 50.04793 8.59097 370 ft 0 kts 339°
2026-05-01 15:23 50.04797 8.59095 369 ft 2 kts 339°
2026-05-01 15:24 50.04806 8.59065 371 ft 3 kts 274°
2026-05-01 15:24 50.04794 8.59042 368 ft 3 kts 240°
2026-05-01 15:24 50.04782 8.58997 368 ft 6 kts 249°
2026-05-01 15:24 50.04763 8.58917 372 ft 10 kts 250°
2026-05-01 15:25 50.04735 8.58800 368 ft 13 kts 250°
2026-05-01 15:25 50.04695 8.58652 370 ft 16 kts 248°
2026-05-01 15:25 50.04652 8.58475 371 ft 17 kts 249°
2026-05-01 15:25 50.04608 8.58289 372 ft 20 kts 250°
2026-05-01 15:26 50.04554 8.58061 364 ft 24 kts 250°
2026-05-01 15:26 50.04499 8.57836 367 ft 23 kts 249°
2026-05-01 15:26 50.04440 8.57590 368 ft 26 kts 249°
2026-05-01 15:26 50.04373 8.57308 361 ft 29 kts 250°
2026-05-01 15:27 50.04305 8.57018 362 ft 28 kts 250°
2026-05-01 15:27 50.04253 8.56793 363 ft 20 kts 249°
2026-05-01 15:27 50.04196 8.56565 361 ft 25 kts 249°
2026-05-01 15:28 50.04066 8.56020 356 ft 26 kts 250°
2026-05-01 15:28 50.04015 8.55802 352 ft 22 kts 250°
2026-05-01 15:28 50.03956 8.55557 352 ft 26 kts 249°
2026-05-01 15:29 50.03819 8.54987 352 ft 30 kts 250°
2026-05-01 15:29 50.03743 8.54665 349 ft 33 kts 250°
2026-05-01 15:29 50.03596 8.54045 343 ft 24 kts 249°
2026-05-01 15:30 50.03470 8.53528 337 ft 27 kts 249°
2026-05-01 15:31 50.03268 8.52661 335 ft 12 kts 266°
2026-05-01 15:31 50.03137 8.52595 333 ft 12 kts 180°
2026-05-01 15:32 50.02466 8.52601 335 ft 115 kts 179°
2026-05-01 15:32 50.00264 8.52628 994 ft 173 kts 176°
2026-05-01 15:33 49.96583 8.53490 2811 ft 205 kts 140°
2026-05-01 15:34 49.94298 8.59645 5408 ft 224 kts 115°